Dalhart, TX

2:39 PM CDT on July 23, 2017 (GMT -0500)
Dalhart Municipal

Weather History for KDHT - May, 2013

Change the Weather History Date:

Friday, May 24, 2013

  Actual Average Record
Temperature  
Mean Temperature 74 °F 66 °F  
Max Temperature 89 °F 81 °F 96 °F (1989)
Min Temperature 58 °F 51 °F 40 °F (2017)
Degree Days  
Heating Degree Days 0 2  
Month to date heating degree days 120 103  
Since 1 July heating degree days 4400 4705  
Cooling Degree Days 9 3  
Month to date cooling degree days 63 39  
Year to date cooling degree days 74 45  
Growing Degree Days 23 (Base 50)    
Moisture  
Dew Point 50 °F    
Average Humidity 54    
Maximum Humidity 86    
Minimum Humidity 21    
Precipitation  
Precipitation 0.01 in 0.08 in 1.29 in (1993)
Month to date precipitation 0.44 1.66  
Year to date precipitation 1.30 4.83  
Snow  
Snow 0.00 in 0.00 in 0.00 in ()
Month to date snowfall T 0.1  
Since 1 July snowfall 21.6 19.0  
Snow Depth 0.00 in    
Sea Level Pressure  
Sea Level Pressure 29.96 in    
Wind  
Wind Speed 20 mph (South)    
Max Wind Speed 32 mph    
Max Gust Speed 40 mph    
Visibility 10 miles    
Events Rain    
T = Trace of Precipitation, MM = Missing Value Source: NWS Daily Summary

Daily Weather History Graph

Daily Weather History Graph

Search for Another Location

Airport or City:

Trip Planner

Search our weather history database for the weather conditions in past years. The results will help you decide how hot, cold, wet, or windy it might be!

Date:

Astronomy

May. 24, 2013 Rise Set
Actual Time 6:38 AM CDT 8:56 PM CDT
Civil Twilight 6:08 AM CDT 9:25 PM CDT
Nautical Twilight 5:33 AM CDT 10:01 PM CDT
Astronomical Twilight 4:53 AM CDT 10:40 PM CDT
Moon 8:41 PM CDT (5/24) 6:10 AM CDT (5/24)
Length of Visible Light 15h 16m
Length of Day
14h 18m
Full, 100% of the Moon is Illuminated
May 24
Full
May 24
Full
May 31
Last Quarter
Jun 8
New
Jun 16
First Quarter

Hourly Weather History & Observations

Time (CDT) Temp. Dew Point Humidity Pressure Visibility Wind Dir Wind Speed Gust Speed Precip Events Conditions
12:53 AM 66.0 °F 59.0 °F 78% 30.01 in 7.0 mi SSE 18.4 mph - N/A   Clear
1:53 AM 64.9 °F 52.0 °F 63% 30.00 in 10.0 mi South 24.2 mph 29.9 mph N/A   Mostly Cloudy
2:18 AM 66.2 °F 48.2 °F 52% 30.13 in 5.0 mi WSW 15.0 mph 32.2 mph 0.01 in Rain Rain
2:53 AM 63.0 °F 54.0 °F 72% 29.98 in 9.0 mi South 15.0 mph - 0.01 in Rain Light Rain
3:53 AM 62.1 °F 54.0 °F 75% 29.95 in 10.0 mi SSW 25.3 mph - 0.00 in   Clear
4:53 AM 61.0 °F 54.0 °F 78% 29.98 in 10.0 mi SSW 15.0 mph - N/A   Clear
5:53 AM 61.0 °F 54.0 °F 78% 29.98 in 10.0 mi SSW 11.5 mph - N/A   Clear
6:53 AM 57.9 °F 53.1 °F 84% 30.02 in 10.0 mi South 9.2 mph - N/A   Clear
7:53 AM 57.9 °F 54.0 °F 87% 30.04 in 10.0 mi South 6.9 mph - N/A   Clear
8:53 AM 66.0 °F 54.0 °F 65% 30.02 in 10.0 mi SW 17.3 mph - N/A   Clear
9:53 AM 70.0 °F 51.1 °F 51% 30.03 in 10.0 mi SW 19.6 mph - N/A   Clear
10:53 AM 75.0 °F 51.1 °F 43% 30.01 in 10.0 mi SW 18.4 mph 27.6 mph N/A   Clear
11:53 AM 75.9 °F 51.1 °F 42% 30.01 in 10.0 mi South 19.6 mph 25.3 mph N/A   Partly Cloudy
12:53 PM 81.0 °F 48.9 °F 33% 29.98 in 10.0 mi SSW 23.0 mph 32.2 mph N/A   Clear
1:53 PM 86.0 °F 45.0 °F 24% 29.94 in 10.0 mi SSW 24.2 mph 34.5 mph N/A   Clear
2:53 PM 86.0 °F 46.0 °F 25% 29.93 in 10.0 mi South 26.5 mph 38.0 mph N/A   Clear
3:53 PM 89.1 °F 45.0 °F 22% 29.89 in 10.0 mi South 20.7 mph 32.2 mph N/A   Clear
4:53 PM 89.1 °F 44.1 °F 21% 29.88 in 10.0 mi South 25.3 mph 32.2 mph N/A   Clear
5:53 PM 88.0 °F 45.0 °F 22% 29.86 in 10.0 mi South 20.7 mph 32.2 mph N/A   Clear
6:53 PM 86.0 °F 46.0 °F 25% 29.86 in 10.0 mi South 29.9 mph 35.7 mph N/A   Clear
7:53 PM 84.0 °F 44.1 °F 25% 29.87 in 10.0 mi SSE 26.5 mph 35.7 mph N/A   Clear
8:53 PM 79.0 °F 46.9 °F 32% 29.86 in 10.0 mi SSE 27.6 mph 33.4 mph N/A   Clear
9:53 PM 75.9 °F 48.9 °F 38% 29.89 in 10.0 mi SSE 21.9 mph - N/A   Clear
10:53 PM 73.9 °F 52.0 °F 46% 29.92 in 10.0 mi SSE 28.8 mph 35.7 mph N/A   Clear
11:53 PM 72.0 °F 51.1 °F 48% 29.95 in 10.0 mi SSE 23.0 mph 31.1 mph N/A   Clear